Flag for U.S.A. Weather past 2 weeks in State College, Pennsylvania, U.S.A.

Now
69 °F

Clear.


Feels Like: 69 °F
Forecast: 65 / 83 °F
Wind: No wind

Location: University Park Airport

Current Time: May 28, 2015 at 12:20:18 AM

Latest Report: May 27, 2015 at 11:15 PM


Visibility: 10 mi

Pressure: 30.15 "Hg

Humidity: 73%

Dew point: 60 °F

Location of State CollegeLocation

Historic Weather in State College — Graph

°F

State College temperature yesterday

Maximum temperature yesterday: 81 °F (at 4:53 PM)
Minimum temperature yesterday: 68 °F (at 5:53 AM)
Average temperature yesterday: 72 °F

Past Weeks' High & Low Weather Summary

 TemperatureHumidityPressure
High84 °F (May 18, 3:53 PM)100% (May 16, 5:53 AM)30.47 "Hg (May 16, 5:53 AM)
Low36 °F (May 14, 4:15 AM)20% (May 23, 3:53 PM)29.88 "Hg (May 19, 4:53 PM)
Average61 °F68%30.16 "Hg
* Reported May 12 10:15 PM — May 27 10:55 PM, State College, Weather by CustomWeather, © 2015

Note: Actual official high and low records may vary slightly from our data, if they occured in-between our weather recording intervals... More about our weather records

Advertising

State College weather history for previous 24 hours

 ConditionsComfort  
Time TempWeatherWind HumidityBarometerVisibility
10:55 PM
Wed, May 27
70 °FClear.No wind71%30.15 "Hg10 mi
10:35 PM68 °FClear.No wind77%30.14 "Hg10 mi
10:15 PM69 °FClear.5 mph76%30.14 "Hg10 mi
8:53 PM72 °FSunny.5 mph69%30.11 "Hg10 mi
7:53 PM73 °FSunny.5 mph65%30.11 "Hg10 mi
6:53 PM79 °FPassing clouds.12 mph51%30.11 "Hg10 mi
5:53 PM81 °FScattered clouds.9 mph51%30.10 "Hg10 mi
4:53 PM81 °FBroken clouds.12 mph58%30.10 "Hg10 mi
3:53 PM77 °FBroken clouds.14 mph65%30.10 "Hg10 mi
2:53 PM75 °FBroken clouds.14 mph69%30.11 "Hg10 mi
1:53 PM73 °FBroken clouds.12 mph74%30.14 "Hg10 mi
12:53 PM72 °FBroken clouds.12 mph83%30.16 "Hg10 mi
11:53 AM70 °FBroken clouds.9 mph88%30.18 "Hg10 mi
10:53 AM72 °FLight rain. Mostly cloudy.12 mph78%30.17 "Hg10 mi
9:53 AM73 °FMostly cloudy.8 mph69%30.15 "Hg10 mi
8:53 AM73 °FBroken clouds.8 mph69%30.15 "Hg10 mi
7:53 AM72 °FPassing clouds.6 mph78%30.14 "Hg10 mi
6:53 AM68 °FScattered clouds.6 mph88%30.13 "Hg10 mi
5:53 AM68 °FPassing clouds.5 mph83%30.11 "Hg10 mi
5:35 AM68 °FOvercast.5 mph86%30.11 "Hg10 mi
5:15 AM68 °FPartly cloudy.6 mph84%30.10 "Hg10 mi
4:55 AM69 °FPartly cloudy.5 mph83%30.10 "Hg10 mi
4:35 AM68 °FPassing clouds.5 mph84%30.10 "Hg10 mi
4:15 AM69 °FPassing clouds.5 mph82%30.10 "Hg10 mi
3:55 AM69 °FPartly cloudy.5 mph83%30.11 "Hg10 mi
3:15 AM69 °FPassing clouds.7 mph84%30.10 "Hg10 mi
2:55 AM70 °FPassing clouds.6 mph82%30.10 "Hg10 mi
2:35 AM70 °FPassing clouds.7 mph82%30.11 "Hg10 mi
2:15 AM72 °FPassing clouds.5 mph78%30.11 "Hg10 mi
1:55 AM72 °FPassing clouds.5 mph78%30.11 "Hg10 mi
1:35 AM71 °FClear.6 mph78%30.11 "Hg10 mi
1:15 AM71 °FClear.7 mph78%30.11 "Hg10 mi
12:55 AM71 °FClear.5 mph77%30.11 "Hg10 mi
12:35 AM71 °FClear.3 mph77%30.12 "Hg10 mi
12:15 AM71 °FClear.6 mph76%30.12 "Hg10 mi
Weather by CustomWeather, © 2015

See weather overviewHow to use our weather pages